Home > Weather > Chesapeake > Past weeks

Flag for USA Past Weather in Chesapeake, Virginia, USA — Yesterday and Last 2 Weeks

Now
69 °F

Passing clouds.


Feels Like: 69 °F
Forecast: 68 / 86 °F
Wind: 5 mph from Northeast

Location: Chesapeake Municipal Airport

Current Time: Jun 30, 2016 at 4:49:27 AM

Latest Report: Jun 30, 2016 at 4:15 AM


Visibility: 10 mi

Pressure: 29.99 "Hg

Humidity: 94%

Dew Point: 68 °F

Location of ChesapeakeLocation

Past Weather in Chesapeake — Graph

°F

Chesapeake Temperature Yesterday

Maximum temperature yesterday: 87 °F (at 3:55 PM)
Minimum temperature yesterday: 66 °F (at 1:35 AM)
Average temperature yesterday: 76 °F

High & Low Weather Summary for the Past Weeks

 TemperatureHumidityPressure
High88 °F (Jun 21, 3:15 PM)99% (Jun 26, 2:35 AM)30.37 "Hg (Jun 26, 2:35 AM)
Low53 °F (Jun 19, 5:15 AM)28% (Jun 19, 2:55 PM)29.65 "Hg (Jun 17, 4:35 AM)
Average74 °F76%30.01 "Hg
* Reported Jun 15 3:15 AM — Jun 30 3:35 AM, Chesapeake, Weather by CustomWeather, © 2016

Note: Actual official high and low records may vary slightly from our data, if they occured in-between our weather recording intervals... More about our weather records

Advertising

Chesapeake Weather History for the Previous 24 Hours

Scroll right to see more
 ConditionsComfort  
Time TempWeatherWind HumidityBarometerVisibility
3:35 AM
Thu, Jun 30
70 °FPassing clouds.6 mph94%30.00 "Hg10 mi
3:15 AM70 °FMostly cloudy.3 mph96%30.01 "Hg10 mi
2:55 AM70 °FLight rain. Overcast.3 mph96%30.02 "Hg10 mi
2:35 AM70 °FRain. Overcast.No wind94%30.03 "Hg2 mi
2:15 AM70 °FMostly cloudy.10 mph95%30.04 "Hg10 mi
1:55 AM72 °FMostly cloudy.No wind91%30.01 "Hg7 mi
1:35 AM71 °FFog.No wind91%30.00 "Hg5 mi
1:15 AM71 °FFog.3 mph92%30.00 "Hg4 mi
12:55 AM72 °FFog.No wind90%30.01 "Hg4 mi
12:35 AM70 °FPartly cloudy.No wind93%30.02 "Hg10 mi
12:15 AM71 °FFog.No wind91%30.01 "Hg5 mi
11:55 PM
Wed, Jun 29
71 °FFog.No wind91%30.01 "Hg3 mi
11:35 PM71 °FFog.No wind91%30.01 "Hg4 mi
11:15 PM71 °FFog.No wind92%30.00 "Hg5 mi
10:55 PM72 °FFog.No wind90%29.99 "Hg5 mi
10:35 PM71 °FFog.No wind92%29.99 "Hg3 mi
10:15 PM72 °FFog.No wind89%29.98 "Hg2 mi
9:55 PM73 °FClear.No wind88%29.98 "Hg7 mi
9:35 PM73 °FClear.3 mph85%29.97 "Hg10 mi
9:15 PM74 °FSunny.5 mph84%29.96 "Hg10 mi
8:55 PM75 °FSunny.5 mph81%29.95 "Hg10 mi
8:35 PM75 °FSunny.5 mph80%29.94 "Hg10 mi
8:15 PM76 °FSunny.5 mph76%29.94 "Hg10 mi
7:35 PM82 °FSunny.No wind55%29.94 "Hg7 mi
7:15 PM83 °FSunny.3 mph48%29.94 "Hg10 mi
6:55 PM84 °FSunny.3 mph49%29.93 "Hg10 mi
6:35 PM85 °FSunny.6 mph45%29.93 "Hg7 mi
6:15 PM85 °FScattered clouds.5 mph45%29.92 "Hg7 mi
5:55 PM85 °FScattered clouds.5 mph46%29.92 "Hg7 mi
5:35 PM87 °FSunny.6 mph42%29.92 "Hg10 mi
5:15 PM85 °FScattered clouds.6 mph46%29.92 "Hg10 mi
4:55 PM85 °FPartly sunny.5 mph45%29.92 "Hg7 mi
4:35 PM87 °FSunny.5 mph42%29.92 "Hg10 mi
4:15 PM87 °FScattered clouds.7 mph43%29.92 "Hg7 mi
3:55 PM87 °FPartly sunny.5 mph43%29.92 "Hg10 mi
3:35 PM85 °FScattered clouds.6 mph48%29.92 "Hg7 mi
3:15 PM87 °FScattered clouds.7 mph43%29.92 "Hg7 mi
2:55 PM85 °FScattered clouds.5 mph46%29.92 "Hg7 mi
2:35 PM85 °FScattered clouds.6 mph46%29.92 "Hg7 mi
2:15 PM87 °FScattered clouds.6 mph41%29.93 "Hg7 mi
1:55 PM85 °FScattered clouds.7 mph43%29.93 "Hg10 mi
1:35 PM86 °FScattered clouds.7 mph43%29.92 "Hg10 mi
1:15 PM85 °FSunny.8 mph46%29.92 "Hg10 mi
12:55 PM85 °FScattered clouds.7 mph50%29.92 "Hg7 mi
12:35 PM84 °FScattered clouds.7 mph56%29.92 "Hg10 mi
12:15 PM84 °FSunny.6 mph56%29.92 "Hg10 mi
11:55 AM83 °FScattered clouds.7 mph61%29.92 "Hg10 mi
11:35 AM81 °FScattered clouds.3 mph70%29.92 "Hg10 mi
11:15 AM80 °FScattered clouds.6 mph70%29.93 "Hg10 mi
10:55 AM79 °FScattered clouds.6 mph73%29.93 "Hg10 mi
10:35 AM76 °FScattered clouds.5 mph76%29.93 "Hg10 mi
10:15 AM74 °FPartly sunny.3 mph83%29.93 "Hg10 mi
9:55 AM74 °FOvercast.5 mph86%29.93 "Hg10 mi
9:35 AM73 °FMore clouds than sun.5 mph88%29.94 "Hg10 mi
9:15 AM72 °FLow clouds.3 mph92%29.94 "Hg7 mi
8:55 AM71 °FLow clouds.7 mph93%29.94 "Hg7 mi
8:35 AM71 °FLow clouds.3 mph95%29.93 "Hg10 mi
8:15 AM70 °FLow clouds.5 mph95%29.93 "Hg7 mi
7:55 AM69 °FFog.3 mph98%29.92 "Hg2 mi
7:35 AM68 °FFog.No wind99%29.92 "Hg1 mi
7:15 AM67 °FFog.No wind98%29.92 "Hg0 mi
6:55 AM67 °FFog.No wind99%29.92 "Hg0 mi
6:35 AM67 °FFog.No wind99%29.91 "Hg0 mi
6:15 AM67 °FFog.No wind99%29.90 "Hg0 mi
5:35 AM67 °FFog.No wind99%29.89 "Hg0 mi
5:15 AM67 °FFog.No wind99%29.89 "Hg1 mi
4:35 AM68 °FFog.No wind99%29.89 "Hg0 mi
4:15 AM68 °FFog.No wind98%29.89 "Hg1 mi
Weather by CustomWeather, © 2016

See weather overviewHow to use our weather pages